Regional Weather Roundup
Issued by NWS Columbia, SC

Home | Current Version | Previous Version | Text Only | Print | Product List | Glossary On
Versions: 1 2 3 4 5 6 7 8 9 10 11 12 13 14 15 16 17 18 19 20 21 22 23 24 25 26 27 28
000
ASUS42 KCAE 300510
RWRCAE
REGIONAL WEATHER ROUNDUP
NATIONAL WEATHER SERVICE COLUMBIA SC
100 AM EDT SAT APR 30 2016

NOTE: "FAIR" INDICATES FEW OR NO CLOUDS BELOW 12,000 FEET WITH NO
SIGNIFICANT WEATHER AND/OR OBSTRUCTIONS TO VISIBILITY.

NOT ALL STATIONS ARE QUALITY CONTROLLED BY THE NATIONAL
WEATHER SERVICE. USE DATA WITH CAUTION...ESPECIALLY
DEWPOINT OBSERVATIONS.

SCZ001>056-GAZ040-063>065-077-300600-
...UPSTATE SOUTH CAROLINA...

CITY           SKY/WX    TMP DP  RH WIND       PRES   REMARKS
ANDERSON       MOCLDY    65  58  78 CALM      29.97F
LIBERTY          N/A     60  57  91 E5        29.98F
SPARTANBURG    CLOUDY    72  46  40 NW6       29.99S
CLEMSON        PTCLDY    68  60  75 CALM      29.99F
GREENVILLE     PTCLDY    72  54  53 CALM      30.00S
GREENWOOD      PTCLDY    65  56  72 CALM      29.99S
GREER          MOCLDY    67  54  63 NE5       29.98S
ROCK HILL      PTCLDY    64  57  78 N7        29.98S
CHESTER        PTCLDY    64  54  68 CALM      29.99R
LAURENS        PTCLDY    66  57  72 W3        29.98R


...CENTRAL SOUTH CAROLINA...

CITY           SKY/WX    TMP DP  RH WIND       PRES   REMARKS
COLUMBIA APT   PTCLDY    74  60  61 S5        29.98R
COLUMBIA OWENS CLEAR     71  62  73 CALM      29.99R
MCENTIRE ANGB  PTCLDY    68  62  82 CALM      29.99R
ORANGEBURG     PTCLDY    69  63  81 CALM      30.00R
SUMTER SHAW    CLOUDY    70  64  80 S3        29.97R
NEWBERRY       CLOUDY    64  59  82 SE6       30.01R
AIKEN          FAIR      68  57  68 SE5       30.03R
BARNWELL       FAIR      70  66  88 CALM      30.00R
CAMDEN         FAIR      72  63  73 CALM      29.99R
LANCASTER      PTCLDY    64  63  94 CALM      29.99R
WINNSBORO      CLOUDY    70  61  73 S7        29.99R


...EASTERN AND COASTAL SOUTH CAROLINA...

CITY           SKY/WX    TMP DP  RH WIND       PRES   REMARKS
MYRTLE BEACH   MOCLDY    70  61  73 SE7       30.03R
N MYRTLE BCH   PTCLDY    68  64  87 SE5       30.01R
CONWAY         FAIR      61  61 100 CALM      30.01S
MARION         FAIR      64  63  94 SE3       30.01R
HARTSVILLE     FAIR      68  64  88 S5        29.99R
FLORENCE       CLOUDY    67  65  93 S3        30.01R
CHARLESTON APT PTCLDY    70  67  90 S6        29.98S
MOUNT PLEASANT FAIR      68  66  94 CALM      29.99S FOG
WALTERBORO     FOG       70  70 100 CALM      30.00R VSB 3/4
BEAUFORT       PTCLDY    73  70  90 SE5       29.98S


...EASTERN GEORGIA...

CITY           SKY/WX    TMP DP  RH WIND       PRES   REMARKS
AUGUSTA BUSH F CLEAR     66  62  87 S3        29.98R
AUGUSTA DANIEL CLEAR     73  61  65 SE6       29.99R
THOMSON        CLEAR     66  65  98 CALM      30.02F
WASHINGTON     FAIR      63  57  82 CALM      29.97F
CLAXTON        FAIR      66  64  91 CALM      29.97S
SYLVANIA       PTCLDY    68  64  87 CALM      29.99S
STATESBORO     CLEAR     70  65  83 CALM      29.97S
SAVANNAH       CLOUDY    71  68  90 E5        29.98R


...SOUTHERN NORTH CAROLINA...

CITY           SKY/WX    TMP DP  RH WIND       PRES   REMARKS
CHARLOTTE      PTCLDY    70  54  56 CALM      29.99S
MONROE         CLOUDY    66  57  72 CALM      29.98R
WADESBORO      PTCLDY    68  57  68 CALM      29.98S
ROCKINGHAM     MOCLDY    69  65  88 SE7       29.99S
RUTHERFORDTON  CLOUDY    65  54  66 CALM      30.01S
ASHEVILLE      MOCLDY    65  48  54 N5        30.06F

$$




USA.gov is the U.S. government's official web portal to all federal, state and local government web resources and services.